Simultaneous Nadir Overpasses (SNOs) Predictions

Prediction of SNOs between AQUA and NPP Satellite Orbit:

Table of predicted SNOs for the next 14.0 days since TLE Epoch: 10/18/2014
Index Date (AQUA) Time (AQUA) Lat,Lon (AQUA) SZA (AQUA ) Date (NPP) Time (NPP) Lat,Lon (NPP) SZA (NPP ) Distance(km) Time Diff (sec)
1 10/20/2014 16:11:35 46.00, 149.55 133.07 10/20/2014 16:10:31 45.96, 149.84 133.08 22.92 64
2 10/20/2014 17:00:36 -47.69, -42.18 48.24 10/20/2014 17:00:49 -47.70, -42.16 48.28 1.31 13
3 10/20/2014 17:39:04 81.60,-164.37 98.32 10/20/2014 17:40:17 81.15,-163.60 98.04 51.96 73
4 10/23/2014 08:28:03 46.04, -94.55 133.76 10/23/2014 08:27:20 46.00, -94.36 133.78 15.87 43
5 10/23/2014 09:15:56 -51.75, 75.41 50.71 10/23/2014 09:16:28 -51.75, 75.43 50.79 1.41 32
6 10/26/2014 00:44:32 46.01, 21.32 134.50 10/26/2014 00:44:10 45.98, 21.42 134.50 8.71 22
7 10/26/2014 01:31:42 -54.25,-167.52 51.97 10/26/2014 01:32:34 -54.25,-167.53 52.06 0.47 52
8 10/28/2014 17:00:59 46.02, 137.21 135.19 10/28/2014 17:00:58 46.02, 137.23 135.18 1.54 1
9 10/28/2014 17:47:21 -57.07, -50.14 53.51 10/28/2014 17:48:33 -57.06, -50.15 53.63 0.95 72
10 10/31/2014 08:28:03 -46.06, 85.45 44.16 10/31/2014 08:27:06 -46.03, 85.69 44.15 18.62 57
11 10/31/2014 09:16:30 49.40,-105.58 133.35 10/31/2014 09:16:49 49.40,-105.59 133.31 0.21 19




NCC Satellite Simultaneous N
